Estación de Longaví Norte
Ultimos registro cada 15 minutos 62
| N° | Estación | Fecha / Hora | Temperatura | Humedad | Lluvia | Velocidad | Dirección | Radiación | Presion |
| 62 | Longaví Norte | 06-09-2026 16:15 | 21,7 | 34,4 | 0 | 0,7 | 324 | 559,4 | 993,5 |
| 61 | Longaví Norte | 06-09-2026 16:00 | 21,2 | 35,9 | 0 | 1 | 305 | 591,9 | 993,5 |
| 60 | Longaví Norte | 06-09-2026 15:45 | 21,4 | 36 | 0 | 1 | 271 | 623,1 | 993,5 |
| 59 | Longaví Norte | 06-09-2026 15:30 | 22,4 | 36 | 0 | 0,7 | 277 | 653,1 | 993,6 |
| 58 | Longaví Norte | 06-09-2026 15:15 | 20,7 | 38,1 | 0 | 1 | 288 | 669,4 | 993,8 |
| 57 | Longaví Norte | 06-09-2026 15:00 | 20,4 | 37,9 | 0 | 1,3 | 232 | 694,4 | 993,8 |
| 56 | Longaví Norte | 06-09-2026 14:45 | 18,9 | 42 | 0 | 1 | 213 | 714,4 | 993,8 |
| 55 | Longaví Norte | 06-09-2026 14:30 | 19,9 | 41,2 | 0 | 1 | 256 | 725,6 | 994,1 |
| 54 | Longaví Norte | 06-09-2026 14:15 | 18,9 | 43,1 | 0 | 1,3 | 213 | 739,4 | 994,3 |
| 53 | Longaví Norte | 06-09-2026 14:00 | 19 | 45,5 | 0 | 0,7 | 220 | 744,4 | 994,5 |
| 52 | Longaví Norte | 06-09-2026 13:45 | 18,1 | 45,5 | 0 | 0,7 | 261 | 744,4 | 994,7 |
| 51 | Longaví Norte | 06-09-2026 13:30 | 17,5 | 46,8 | 0 | 0,7 | 251 | 741,9 | 994,9 |
| 50 | Longaví Norte | 06-09-2026 13:15 | 16,8 | 48,7 | 0 | 0,7 | 232 | 733,1 | 995 |
| 49 | Longaví Norte | 06-09-2026 13:00 | 15,8 | 51,7 | 0 | 0,7 | 213 | 721,9 | 995,2 |
| 48 | Longaví Norte | 06-09-2026 12:45 | 14,9 | 53,4 | 0 | 0,7 | 199 | 709,4 | 995,2 |
| 47 | Longaví Norte | 06-09-2026 12:30 | 14,1 | 52 | 0 | 0,7 | 204 | 703,1 | 995,4 |
| 46 | Longaví Norte | 06-09-2026 12:15 | 13,7 | 55,7 | 0 | 0,7 | 227 | 670,6 | 995,5 |
| 45 | Longaví Norte | 06-09-2026 12:00 | 13,1 | 56,3 | 0 | 0,7 | 233 | 643,1 | 995,6 |
| 44 | Longaví Norte | 06-09-2026 11:45 | 12,4 | 58,6 | 0 | 0,7 | 312 | 615,6 | 995,6 |
| 43 | Longaví Norte | 06-09-2026 11:30 | 9,9 | 61,6 | 0 | 0,7 | 216 | 580,6 | 995,8 |
| 42 | Longaví Norte | 06-09-2026 11:15 | 9,1 | 64,7 | 0 | 0,7 | 227 | 549,4 | 995,8 |
| 41 | Longaví Norte | 06-09-2026 11:00 | 8,8 | 66,2 | 0 | 0,7 | 264 | 33,1 | 995,9 |
| 40 | Longaví Norte | 06-09-2026 10:45 | 8,2 | 67,5 | 0 | 0,7 | 305 | 31,9 | 995,7 |
| 39 | Longaví Norte | 06-09-2026 10:30 | 7 | 69,3 | 0 | 0,7 | 289 | 426,9 | 995,7 |
| 38 | Longaví Norte | 06-09-2026 10:15 | 6,3 | 72,6 | 0 | 0,7 | 232 | 31,9 | 995,5 |
| 37 | Longaví Norte | 06-09-2026 10:00 | 6,1 | 74,4 | 0 | 0,3 | 233 | 30,6 | 995,4 |
| 36 | Longaví Norte | 06-09-2026 09:45 | 4,5 | 77,5 | 0 | 0,7 | 199 | 296,9 | 995,3 |
| 35 | Longaví Norte | 06-09-2026 09:30 | 4,4 | 77,2 | 0 | 0 | 352 | 249,4 | 995,1 |
| 34 | Longaví Norte | 06-09-2026 09:15 | 4 | 83,8 | 0 | 0 | 13 | 211,9 | 994,9 |
| 33 | Longaví Norte | 06-09-2026 09:00 | 1,8 | 94,8 | 0 | 0 | 11 | 128,1 | 994,8 |
| 32 | Longaví Norte | 06-09-2026 08:45 | -0,1 | 98 | 0 | 0 | 10 | 95,6 | 994,6 |
| 31 | Longaví Norte | 06-09-2026 08:30 | -1,3 | 97,6 | 0 | 0 | 7 | 28,1 | 994,4 |
| 30 | Longaví Norte | 06-09-2026 08:15 | -1,8 | 97,8 | 0 | 0 | 7 | 10,6 | 994,4 |
| 29 | Longaví Norte | 06-09-2026 08:00 | -2 | 97,3 | 0 | 0 | 7 | 4,4 | 994,3 |
| 28 | Longaví Norte | 06-09-2026 07:45 | -1,8 | 97 | 0 | 0 | 7 | 0,6 | 994,3 |
| 27 | Longaví Norte | 06-09-2026 07:30 | -1,6 | 97 | 0 | 0 | 7 | 0,6 | 994,3 |
| 26 | Longaví Norte | 06-09-2026 07:15 | -1 | 97,4 | 0 | 0 | 39 | 0,6 | 994,3 |
| 25 | Longaví Norte | 06-09-2026 07:00 | -1,5 | 97,1 | 0 | 0 | 7 | 0,6 | 994,2 |
| 24 | Longaví Norte | 06-09-2026 06:45 | -1,6 | 96,9 | 0 | 0 | 7 | 0,6 | 994,3 |
| 23 | Longaví Norte | 06-09-2026 06:30 | -1,4 | 96,7 | 0 | 0 | 7 | 0,6 | 994,4 |
| 22 | Longaví Norte | 06-09-2026 06:15 | -1,3 | 96,3 | 0 | 0 | 7 | 0,6 | 994,4 |
| 21 | Longaví Norte | 06-09-2026 06:00 | -1,1 | 96,3 | 0 | 0 | 340 | 0,6 | 994,3 |
| 20 | Longaví Norte | 06-09-2026 05:45 | -1 | 95,6 | 0 | 0 | 329 | 0,6 | 994,4 |
| 19 | Longaví Norte | 06-09-2026 05:30 | -1,1 | 95,3 | 0 | 0 | 291 | 0,6 | 994,4 |
| 18 | Longaví Norte | 06-09-2026 05:15 | -0,8 | 94,9 | 0 | 0 | 298 | 0,6 | 994,5 |
| 17 | Longaví Norte | 06-09-2026 05:00 | -0,1 | 93,5 | 0 | 0 | 320 | 0,6 | 994,6 |
| 16 | Longaví Norte | 06-09-2026 04:45 | -0,1 | 95,3 | 0 | 0 | 284 | 0,6 | 994,6 |
| 15 | Longaví Norte | 06-09-2026 04:30 | -0,1 | 94,2 | 0 | 0 | 286 | 0,6 | 994,8 |
| 14 | Longaví Norte | 06-09-2026 04:15 | 0,2 | 93,3 | 0 | 0 | 251 | 0,6 | 994,9 |
| 13 | Longaví Norte | 06-09-2026 04:00 | 0,2 | 92,4 | 0 | 0 | 239 | 0,6 | 995 |
| 12 | Longaví Norte | 06-09-2026 03:45 | 0,6 | 91,3 | 0 | 0 | 239 | 0,6 | 995,2 |
| 11 | Longaví Norte | 06-09-2026 03:30 | 1,1 | 89,7 | 0 | 0 | 239 | 0,6 | 995,3 |
| 10 | Longaví Norte | 06-09-2026 03:15 | 1,8 | 86,6 | 0 | 0 | 226 | 0,6 | 995,6 |
| 9 | Longaví Norte | 06-09-2026 03:00 | 2,8 | 83,8 | 0 | 0,3 | 243 | 0,6 | 995,8 |
| 8 | Longaví Norte | 06-09-2026 02:45 | 3,4 | 80,9 | 0 | 0,3 | 234 | 0,6 | 996 |
| 7 | Longaví Norte | 06-09-2026 02:30 | 3,6 | 79,9 | 0 | 0,3 | 244 | 0,6 | 996,2 |
| 6 | Longaví Norte | 06-09-2026 02:15 | 3,9 | 75,7 | 0 | 0,3 | 352 | 0,6 | 996,4 |
| 5 | Longaví Norte | 06-09-2026 02:00 | 5 | 69,1 | 0 | 0,3 | 260 | 0,6 | 996,5 |
| 4 | Longaví Norte | 06-09-2026 01:45 | 7,4 | 54,6 | 0 | 0,3 | 277 | 0,6 | 996,7 |
| 3 | Longaví Norte | 06-09-2026 01:30 | 8,7 | 43,1 | 0 | 0 | 7 | 0,6 | 996,8 |
| 2 | Longaví Norte | 06-09-2026 01:15 | 10,2 | 38,4 | 0 | 0 | 63 | 0,6 | 996,8 |
| 1 | Longaví Norte | 06-09-2026 01:00 | 10 | 39,8 | 0 | 0,3 | 66 | 0,6 | 996,9 |